Starlink 30516

operational
NORAD ID: 57984 Int'l Des: 2023-151 Owner: SPXS Country: US Constellation: starlink
LEOCIRCULAR

Über Starlink 30516

Beschreibung wird geladen...

Live-Position

3D-Globus wird geladen...

Nächste Überflüge

Höhenverlauf

Altitude vs Time

uPlot chart will show altitude changes over time

Zweizeiliger Elementsatz

1 57984U 23151W 25350.35491179 .00000804 00000-0 74580-4 0 9999
2 57984 43.0040 84.6894 0001388 269.6546 90.4137 15.02533972123044
Epoch: 16. Dez. 2025 • Age: 13 hours

Aktueller Status

Höhe 562.5 km
Geschwindigkeit 7.59 km/s
Subsatellitenpunkt 40.19°N, 96.3°E
Startdatum 30. Sept. 2023
Alter 2.2 years
Typ internet

Technische Details

Klassifizierung Payload
Masse 730.00 kg
Trockenmasse 700.00 kg
Gesamtmasse 730.00 kg
Länge 0.30 m
Durchmesser 4.10 m
Spannweite 29.00 m
Form Box + pan
Hersteller SPXS
Bus-Typ Starlink V2M
Phasenstatus In Orbit
Besitzer/Staat SPXS/US

Große Konstellationen

Loading constellations...